View from above orbital plane
|
View from above satellite
|
Ground track
|
The orbit data is extracted from the following two-line orbital elements,
1 00115U 60002D 21056.41069627 .00000157 00000-0 45573-4 0 9995
2 00115 48.1664 137.7592 0034959 283.0736 76.6276 14.83705916229372
Epoch (UTC): | 25 February 2021 09:51:24 |
Eccentricity: | 0.0034959 |
inclination: | 48.1664° |
perigee height: | 593 km |
apogee height: | 642 km |
right ascension of ascending node: | 137.7592° |
argument of perigee: | 283.0736° |
revolutions per day: | 14.83705916 |
mean anomaly at epoch: | 76.6276° |
orbit number at epoch: | 22937 |
The dashed part of the orbit path shows where the satellite is in the earth's shadow,
|
|